TimeCDT,TemperatureF,Dew PointF,Humidity,Sea Level PressureIn,VisibilityMPH,Wind Direction,Wind SpeedMPH,Gust SpeedMPH,PrecipitationIn,Events,Conditions,WindDirDegrees,DateUTC
12:52 AM,52.0,41.0,66,29.78,8.0,ESE,13.8,-,N/A,,Clear,110,2013-04-08 05:52:00
1:52 AM,51.1,39.0,63,29.75,7.0,ESE,16.1,-,N/A,,Mostly Cloudy,110,2013-04-08 06:52:00
2:52 AM,48.0,42.1,80,29.73,3.0,ESE,11.5,-,0.04,Rain,Rain,120,2013-04-08 07:52:00
3:29 AM,46.4,44.6,93,29.70,2.0,ESE,15.0,-,0.08,Rain,Rain,110,2013-04-08 08:29:00
3:40 AM,46.4,44.6,93,29.70,1.5,ESE,15.0,-,0.15,Rain,Heavy Rain,120,2013-04-08 08:40:00
3:52 AM,46.9,45.0,93,29.69,1.5,ESE,16.1,-,0.22,Rain,Heavy Rain,110,2013-04-08 08:52:00
4:27 AM,46.4,44.6,93,29.61,1.5,East,16.1,-,0.13,Rain,Light Rain,80,2013-04-08 09:27:00
4:43 AM,46.4,46.4,100,29.59,1.2,East,17.3,-,0.16,Rain,Rain,80,2013-04-08 09:43:00
4:52 AM,46.9,46.0,97,29.58,1.0,East,17.3,-,0.21,Rain,Heavy Rain,90,2013-04-08 09:52:00
5:52 AM,48.9,48.0,97,29.54,1.5,East,13.8,-,0.30,Rain,Heavy Rain,90,2013-04-08 10:52:00
6:08 AM,50.0,48.2,94,29.53,2.0,East,12.7,-,0.04,Rain,Light Rain,90,2013-04-08 11:08:00
6:19 AM,50.0,48.2,94,29.52,2.0,East,5.8,-,0.06,Rain,Rain,100,2013-04-08 11:19:00
6:50 AM,48.2,46.4,93,29.55,2.5,North,19.6,34.5,0.12,Rain,Rain,360,2013-04-08 11:50:00
6:52 AM,48.9,46.9,93,29.56,2.5,North,13.8,31.1,0.12,Rain,Light Rain,350,2013-04-08 11:52:00
6:56 AM,48.2,46.4,93,29.57,3.0,North,19.6,-,0.01,Rain,Light Rain,350,2013-04-08 11:56:00
7:01 AM,48.2,46.4,93,29.58,4.0,NNW,16.1,-,0.01,Rain,Light Rain,340,2013-04-08 12:01:00
7:20 AM,48.2,48.2,100,29.62,2.5,NW,18.4,27.6,0.04,Rain,Rain,310,2013-04-08 12:20:00
7:28 AM,48.2,46.4,93,29.62,2.0,NW,11.5,25.3,0.05,Rain,Light Rain,310,2013-04-08 12:28:00
7:36 AM,48.2,46.4,93,29.62,2.5,WNW,11.5,-,0.05,Rain,Light Rain,300,2013-04-08 12:36:00
7:52 AM,48.0,46.9,96,29.65,2.5,West,12.7,-,0.05,,Scattered Clouds,280,2013-04-08 12:52:00
8:06 AM,48.2,46.4,93,29.66,3.0,West,12.7,-,N/A,,Mostly Cloudy,280,2013-04-08 13:06:00
8:52 AM,51.1,48.9,92,29.70,6.0,WSW,17.3,-,N/A,,Overcast,250,2013-04-08 13:52:00
9:31 AM,51.8,51.8,100,29.70,2.5,West,18.4,-,N/A,,Mostly Cloudy,260,2013-04-08 14:31:00
9:52 AM,54.0,52.0,93,29.72,2.5,West,13.8,-,N/A,,Mostly Cloudy,270,2013-04-08 14:52:00
9:59 AM,55.4,53.6,94,29.72,3.0,West,13.8,-,N/A,,Mostly Cloudy,280,2013-04-08 14:59:00
10:52 AM,57.9,54.0,87,29.75,5.0,West,11.5,-,N/A,,Mostly Cloudy,270,2013-04-08 15:52:00
10:59 AM,59.0,55.4,88,29.75,5.0,West,13.8,-,N/A,,Scattered Clouds,270,2013-04-08 15:59:00
11:07 AM,60.8,55.4,82,29.75,6.0,West,12.7,-,N/A,,Haze,270,2013-04-08 16:07:00
11:17 AM,60.8,55.4,82,29.75,7.0,West,12.7,-,0.01,,Partly Cloudy,280,2013-04-08 16:17:00
11:52 AM,64.0,54.0,70,29.75,10.0,WSW,15.0,-,0.01,,Partly Cloudy,250,2013-04-08 16:52:00
12:52 PM,66.0,53.1,63,29.76,10.0,West,13.8,-,N/A,,Clear,260,2013-04-08 17:52:00
1:52 PM,69.1,54.0,58,29.76,10.0,WSW,12.7,-,N/A,,Scattered Clouds,240,2013-04-08 18:52:00
2:52 PM,70.0,53.1,55,29.76,10.0,WSW,6.9,-,N/A,,Partly Cloudy,240,2013-04-08 19:52:00
3:52 PM,71.1,52.0,51,29.76,10.0,West,9.2,-,N/A,,Clear,260,2013-04-08 20:52:00
4:52 PM,71.1,52.0,51,29.77,10.0,WSW,8.1,-,N/A,,Clear,250,2013-04-08 21:52:00
5:52 PM,71.1,51.1,49,29.79,10.0,SSW,9.2,-,N/A,,Clear,210,2013-04-08 22:52:00
6:52 PM,68.0,52.0,56,29.80,9.0,Calm,Calm,-,N/A,,Clear,0,2013-04-08 23:52:00
7:52 PM,63.0,51.1,65,29.83,10.0,SE,3.5,-,N/A,,Clear,140,2013-04-09 00:52:00
8:52 PM,61.0,51.1,70,29.84,10.0,ESE,6.9,-,N/A,,Clear,120,2013-04-09 01:52:00
9:52 PM,59.0,51.1,75,29.87,10.0,ENE,3.5,-,N/A,,Clear,70,2013-04-09 02:52:00
10:52 PM,60.1,53.1,78,29.89,10.0,ESE,6.9,-,N/A,,Overcast,110,2013-04-09 03:52:00
11:52 PM,60.1,53.1,78,29.86,10.0,ESE,6.9,-,N/A,,Mostly Cloudy,120,2013-04-09 04:52:00